Hourly Weather Roundup
Issued by NWS Central Illinois

Home | Current Version | Previous Version | Text Only | Print | Product List | Glossary On
Versions: 1 2 3 4 5 6 7 8 9 10 11 12 13 14 15 16 17 18 19 20 21 22 23 24 25 26 27 28 29 30 31 32 33 34 35 36 37 38 39 40 41 42 43 44 45 46 47 48 49 50
000
NZUS43 KILX 041010
HWRILX

AREA WEATHER ROUNDUP
NATIONAL WEATHER SERVICE, LINCOLN IL
500 AM CDT FRI SEP 04 2015


CITY           SKY/WX    TMP DP  RH WIND       PRES   REMARKS
BLOOMINGTON    CLEAR     71  67  87 SW6       29.99S
CHAMPAIGN      CLEAR     68  66  93 SW6       29.99R FOG
DANVILLE       CLEAR     66  65  97 CALM      29.96R FOG
DECATUR        CLEAR     72  66  81 S3        29.99R
EFFINGHAM      CLEAR     68  65  91 CALM      30.01R
FLORA          CLEAR     67  65  95 CALM      29.99S
GALESBURG      CLEAR     66  65  97 CALM      29.96S
JACKSONVILLE   CLEAR     73  69  86 SW6       29.97S
LACON          CLEAR     70  68  94 CALM      29.96R
LAWRENCEVILLE  CLEAR     68  66  93 S3        29.99S FOG
LITCHFIELD     CLEAR     68  66  93 CALM      29.99S
$$


CITY           SKY/WX    TMP DP  RH WIND       PRES   REMARKS
LINCOLN        CLEAR     68  64  86 CALM      29.97S
MACOMB         CLEAR     67  66  96 CALM      29.99S
MATTOON        CLEAR     75  67  76 SW6       29.98S
MT CARMEL AP   CLEAR     64  61  88 CALM      29.99S
OLNEY-NOBLE AP CLEAR     64  64 100 CALM      30.00S FOG
PARIS          CLEAR     68  66  93 CALM      30.00R
PEORIA         CLEAR     74  67  78 CALM      29.97R
PONTIAC        CLEAR     69  68  99 E3        29.98S FOG
RANTOUL        CLEAR     73  68  83 NE5       29.98R
ROBINSON       PTCLDY    65  64  96 CALM      30.00R FOG
SPRINGFIELD    MOCLDY    70  66  87 CALM      29.98R
TAYLORVILLE    CLEAR     68  66  94 CALM      29.98S
$$

...REGIONAL REPORTS...


CITY           SKY/WX    TMP DP  RH WIND       PRES   REMARKS
CHICAGO O`HARE CLEAR     69  66  90 N3        29.97S
KANKAKEE       FOG       67  66  99 CALM      29.99R VSB 1/2
MOLINE         CLEAR     70  67  90 CALM      29.95S
MOUNT STERLING CLEAR     72  68  88 SW3       29.97S
MOUNT VERNON   CLEAR     64  61  88 CALM      30.00S
PITTSFIELD     CLEAR     73  68  86 CALM      29.99S
QUINCY         CLEAR     73  68  84 S5        29.97S
ROCKFORD       PTCLDY    68  65  90 E3        29.99F
$$


CITY           SKY/WX    TMP DP  RH WIND       PRES   REMARKS
BURLINGTON     PTCLDY    70  68  93 CALM      29.96S
CEDAR RAPIDS   MOCLDY    69  69 100 S5        29.94S
DES MOINES     PTCLDY    72  66  81 S7        29.91F
KIRKSVILLE     CLEAR     68  66  93 SE3       29.98S FOG
OTTUMWA        CLEAR     69  68  96 S7        29.93S
ST LOUIS       CLEAR     77  68  73 CALM      29.99R
$$


CITY           SKY/WX    TMP DP  RH WIND       PRES   REMARKS
TERRE HAUTE    CLEAR     67  65  93 CALM      29.99R
EVANSVILLE     CLEAR     71  68  90 CALM      29.99S FOG
INDIANAPOLIS   CLEAR     71  66  84 SW7       29.98S
LAFAYETTE      CLEAR     67  66  97 CALM      29.97S FOG
MADISON        CLOUDY    70  65  84 CALM      29.99S
MILWAUKEE      PTCLDY    66  63  90 CALM      29.98S
$$




USA.gov is the U.S. government's official web portal to all federal, state and local government web resources and services.